Location: Skalnate Pleso
(49.1889°N, 20.2450°E)
Time: 13:47:02
(UTC+02:00)

Cosmos 1269 Rocket - Pass Details

Date: 23 February 2020
Orbit: 772 x 780 km, 74.1° (Epoch: 05 April)

Event Time Altitude Azimuth Distance (km) Brightness Sun altitude
Exits shadow 02:04:11 14° 28° (NNE) 2,063 6.7 -42.3°
Drops below altitude 10° 02:04:53 10° 27° (NNE) 2,330 7.1 -42.2°
Sets 02:07:17 0° 26° (NNE) 3,263 8.0 -41.9°
